| time (UTC) | temp F | wind direction | speed knots | gust knots | rain 1hr in | rain 24hr in | rain mn in | humidity % | barometer mb |
| 20260509085441 | 60 | 86 | 0.0 | 1.7 | 0.00 | 0.00 | 0.00 | 72 | 1024.4 |
| 20260509084440 | 61 | 86 | 0.0 | 0.0 | 0.00 | 0.00 | 0.00 | 71 | 1024.4 |
| 20260509083336 | 61 | 86 | 0.0 | 0.0 | 0.00 | 0.00 | 0.00 | 69 | 1024.1 |
| 20260509082334 | 62 | 86 | 0.0 | 0.0 | 0.00 | 0.00 | 0.00 | 67 | 1024.1 |
| 20260509081333 | 63 | 86 | 0.0 | 2.6 | 0.00 | 0.00 | 0.00 | 66 | 1024.1 |
| 20260509080331 | 63 | 86 | 0.0 | 2.6 | 0.00 | 0.00 | 0.00 | 65 | 1023.7 |
| 20260509075330 | 64 | 86 | 0.0 | 0.9 | 0.00 | 0.00 | 0.00 | 64 | 1023.7 |
| 20260509074329 | 64 | 86 | 0.0 | 1.7 | 0.00 | 0.00 | 0.00 | 64 | 1023.7 |
| 20260509073327 | 64 | 86 | 0.0 | 6.1 | 0.00 | 0.00 | 0.00 | 64 | 1023.4 |
| 20260509072325 | 64 | 90 | 2.6 | 6.1 | 0.00 | 0.00 | 0.00 | 63 | 1023.4 |
| 20260509071323 | 65 | 81 | 1.7 | 5.2 | 0.00 | 0.00 | 0.00 | 64 | 1023.4 |
| 20260509070321 | 65 | 85 | 1.7 | 5.2 | 0.00 | 0.00 | 0.00 | 63 | 1023.4 |
| 20260509065248 | 65 | 118 | 1.7 | 6.1 | 0.00 | 0.00 | 0.00 | 62 | 1023.1 |
| 20260509064246 | 65 | 87 | 1.7 | 6.1 | 0.00 | 0.00 | 0.00 | 63 | 1023.1 |
| 20260509063245 | 66 | 105 | 1.7 | 6.1 | 0.00 | 0.00 | 0.00 | 63 | 1022.7 |
| 20260509062243 | 66 | 111 | 1.7 | 4.3 | 0.00 | 0.00 | 0.00 | 64 | 1022.7 |
| 20260509061241 | 66 | 115 | 2.6 | 5.2 | 0.00 | 0.00 | 0.00 | 60 | 1022.7 |
| 20260509060240 | 66 | 102 | 1.7 | 7.0 | 0.00 | 0.00 | 0.00 | 60 | 1022.7 |
| 20260509055238 | 66 | 85 | 3.5 | 7.0 | 0.00 | 0.00 | 0.00 | 60 | 1022.4 |
| 20260509054237 | 67 | 144 | 1.7 | 7.8 | 0.00 | 0.00 | 0.00 | 57 | 1022.4 |
| 20260509053205 | 67 | 130 | 2.6 | 7.8 | 0.00 | 0.00 | 0.00 | 56 | 1022.4 |
| 20260509052203 | 67 | 111 | 0.9 | 7.0 | 0.00 | 0.00 | 0.00 | 57 | 1022.4 |
| 20260509051202 | 67 | 131 | 1.7 | 7.8 | 0.00 | 0.00 | 0.00 | 57 | 1022.4 |
| 20260509050200 | 68 | 96 | 2.6 | 7.8 | 0.00 | 0.00 | 0.00 | 55 | 1022.4 |
| 20260509045158 | 69 | 80 | 2.6 | 6.1 | 0.00 | 0.00 | 0.00 | 54 | 1022.1 |
| 20260509044156 | 69 | 130 | 1.7 | 5.2 | 0.00 | 0.00 | 0.00 | 53 | 1022.1 |
| 20260509043155 | 69 | 119 | 1.7 | 7.0 | 0.00 | 0.00 | 0.00 | 54 | 1022.1 |
| 20260509042153 | 70 | 119 | 1.7 | 7.0 | 0.00 | 0.00 | 0.00 | 54 | 1022.1 |
| 20260509041121 | 70 | 111 | 1.7 | 6.1 | 0.00 | 0.00 | 0.00 | 51 | 1022.1 |
| 20260509040120 | 70 | 111 | 2.6 | 3.5 | 0.00 | 0.00 | 0.00 | 51 | 1022.1 |
| 20260509035047 | 70 | 100 | 0.9 | 2.6 | 0.00 | 0.00 | 0.00 | 51 | 1022.1 |
| 20260509034045 | 70 | 130 | 0.9 | 4.3 | 0.00 | 0.00 | 0.00 | 52 | 1022.1 |
| 20260509033044 | 70 | 96 | 1.7 | 7.0 | 0.00 | 0.00 | 0.00 | 51 | 1022.4 |
| 20260509032011 | 70 | 118 | 1.7 | 6.1 | 0.00 | 0.00 | 0.00 | 53 | 1022.4 |
| 20260509030938 | 70 | 114 | 1.7 | 6.1 | 0.00 | 0.00 | 0.00 | 52 | 1022.4 |
| 20260509025937 | 70 | 95 | 1.7 | 4.3 | 0.00 | 0.00 | 0.00 | 51 | 1022.4 |
| 20260509024935 | 72 | 90 | 0.9 | 5.2 | 0.00 | 0.00 | 0.00 | 51 | 1022.8 |
| 20260509023933 | 73 | 162 | 0.9 | 2.6 | 0.00 | 0.00 | 0.00 | 46 | 1022.8 |
| 20260509022932 | 73 | 174 | 0.9 | 2.6 | 0.00 | 0.00 | 0.00 | 44 | 1022.8 |
| 20260509021930 | 73 | 218 | 0.9 | 2.6 | 0.00 | 0.00 | 0.00 | 44 | 1023.1 |
| 20260509020928 | 72 | 256 | 0.9 | 2.6 | 0.00 | 0.00 | 0.00 | 45 | 1023.1 |
| 20260509015855 | 72 | 276 | 0.9 | 2.6 | 0.00 | 0.00 | 0.00 | 47 | 1023.4 |
| 20260509014821 | 72 | 261 | 0.9 | 2.6 | 0.00 | 0.00 | 0.00 | 48 | 1023.4 |
| 20260509013820 | 71 | 266 | 0.9 | 2.6 | 0.00 | 0.00 | 0.00 | 49 | 1023.8 |
| 20260509012818 | 71 | 299 | 0.9 | 2.6 | 0.00 | 0.00 | 0.00 | 50 | 1023.8 |
| 20260509011817 | 70 | 206 | 0.9 | 2.6 | 0.00 | 0.00 | 0.00 | 49 | 1023.8 |
| 20260509010815 | 70 | 196 | 0.9 | 2.6 | 0.00 | 0.00 | 0.00 | 51 | 1023.8 |
| 20260509005814 | 69 | 345 | 0.9 | 2.6 | 0.00 | 0.00 | 0.00 | 52 | 1024.1 |
| 20260509004812 | 69 | 286 | 0.9 | 2.6 | 0.00 | 0.00 | 0.00 | 52 | 1024.1 |
| 20260509003811 | 69 | 292 | 0.9 | 2.6 | 0.00 | 0.00 | 0.00 | 51 | 1024.1 |
| 20260509002810 | 68 | 228 | 1.7 | 2.6 | 0.00 | 0.00 | 0.00 | 53 | 1024.4 |
| 20260509001808 | 67 | 311 | 1.7 | 2.6 | 0.00 | 0.00 | 0.00 | 55 | 1024.1 |
| 20260509000736 | 67 | 166 | 0.9 | 3.5 | 0.00 | 0.00 | 0.00 | 56 | 1024.4 |
| 20260508235735 | 67 | 169 | 1.7 | 3.5 | 0.00 | 0.00 | 0.00 | 56 | 1024.4 |
| 20260508234733 | 66 | 273 | 0.0 | 2.6 | 0.00 | 0.00 | 0.00 | 58 | 1024.4 |
| 20260508233731 | 66 | 235 | 0.9 | 2.6 | 0.00 | 0.00 | 0.00 | 60 | 1024.4 |
| 20260508232729 | 65 | 247 | 0.9 | 6.1 | 0.00 | 0.00 | 0.00 | 62 | 1024.4 |
| 20260508231728 | 64 | 276 | 1.7 | 6.1 | 0.00 | 0.00 | 0.00 | 63 | 1024.4 |
| 20260508230726 | 64 | 304 | 0.9 | 2.6 | 0.00 | 0.00 | 0.00 | 63 | 1024.4 |
| 20260508225724 | 63 | 346 | 1.7 | 2.6 | 0.00 | 0.00 | 0.00 | 66 | 1024.4 |
| 20260508224722 | 62 | 209 | 0.9 | 3.5 | 0.00 | 0.00 | 0.00 | 66 | 1024.4 |
| 20260508223721 | 62 | 212 | 0.0 | 3.5 | 0.00 | 0.00 | 0.00 | 67 | 1024.4 |
| 20260508222719 | 61 | 290 | 1.7 | 2.6 | 0.00 | 0.00 | 0.00 | 67 | 1024.4 |
| 20260508221718 | 61 | 44 | 0.9 | 1.7 | 0.00 | 0.00 | 0.00 | 69 | 1024.4 |
| 20260508220716 | 59 | 261 | 0.9 | 1.7 | 0.00 | 0.00 | 0.00 | 72 | 1024.1 |
| 20260508215644 | 58 | 291 | 0.9 | 1.7 | 0.00 | 0.00 | 0.00 | 72 | 1024.1 |
| 20260508214642 | 58 | 293 | 0.9 | 1.7 | 0.00 | 0.00 | 0.00 | 74 | 1024.1 |
| 20260508213641 | 57 | 293 | 0.9 | 2.6 | 0.00 | 0.00 | 0.00 | 75 | 1024.1 |
| 20260508212639 | 56 | 55 | 0.9 | 3.5 | 0.00 | 0.00 | 0.00 | 77 | 1023.7 |
| 20260508211638 | 55 | 168 | 0.9 | 1.7 | 0.00 | 0.00 | 0.00 | 77 | 1023.7 |
| 20260508210636 | 55 | 238 | 0.9 | 0.9 | 0.00 | 0.00 | 0.00 | 78 | 1023.7 |
| 20260508205635 | 55 | 238 | 0.0 | 1.7 | 0.00 | 0.00 | 0.00 | 77 | 1023.4 |
| 20260508204634 | 55 | 238 | 0.0 | 1.7 | 0.00 | 0.00 | 0.00 | 76 | 1023.4 |
| 20260508203632 | 55 | 45 | 0.9 | 2.6 | 0.00 | 0.00 | 0.00 | 75 | 1023.0 |
| 20260508202631 | 56 | 45 | 0.0 | 2.6 | 0.00 | 0.00 | 0.00 | 75 | 1023.0 |
| 20260508201629 | 56 | 275 | 0.9 | 2.6 | 0.00 | 0.00 | 0.00 | 75 | 1023.0 |
| 20260508200556 | 56 | 329 | 0.9 | 1.7 | 0.00 | 0.00 | 0.00 | 75 | 1022.7 |
| 20260508195555 | 56 | 268 | 0.9 | 1.7 | 0.00 | 0.00 | 0.00 | 75 | 1022.7 |
| 20260508194553 | 56 | 47 | 1.7 | 1.7 | 0.00 | 0.00 | 0.00 | 75 | 1022.4 |
| 20260508193552 | 56 | 47 | 0.0 | 0.9 | 0.00 | 0.00 | 0.00 | 75 | 1022.4 |
| 20260508192520 | 56 | 47 | 0.0 | 0.9 | 0.00 | 0.00 | 0.00 | 75 | 1022.0 |
| 20260508191518 | 56 | 47 | 0.0 | 0.0 | 0.00 | 0.00 | 0.00 | 75 | 1022.0 |
| 20260508190517 | 56 | 47 | 0.0 | 2.6 | 0.00 | 0.00 | 0.00 | 75 | 1022.0 |
| 20260508185515 | 56 | 47 | 0.9 | 2.6 | 0.00 | 0.00 | 0.00 | 74 | 1022.0 |
| 20260508184513 | 56 | 47 | 0.0 | 1.7 | 0.00 | 0.00 | 0.00 | 74 | 1021.7 |
| 20260508183512 | 56 | 47 | 0.0 | 2.6 | 0.00 | 0.00 | 0.00 | 74 | 1021.7 |
| 20260508182510 | 56 | 259 | 0.9 | 2.6 | 0.00 | 0.00 | 0.00 | 74 | 1021.7 |
| 20260508181508 | 56 | 258 | 0.0 | 1.7 | 0.00 | 0.00 | 0.00 | 74 | 1021.7 |
| 20260508180435 | 56 | 258 | 0.0 | 1.7 | 0.00 | 0.00 | 0.00 | 74 | 1021.7 |
| 20260508175433 | 56 | 258 | 0.0 | 1.7 | 0.00 | 0.00 | 0.00 | 73 | 1021.7 |
| 20260508174431 | 56 | 251 | 0.9 | 0.9 | 0.00 | 0.00 | 0.00 | 73 | 1021.7 |
| 20260508173430 | 56 | 251 | 0.0 | 1.7 | 0.00 | 0.00 | 0.00 | 73 | 1021.7 |
| 20260508172428 | 56 | 251 | 0.9 | 1.7 | 0.00 | 0.00 | 0.00 | 73 | 1021.7 |
| 20260508171355 | 56 | 251 | 0.9 | 1.7 | 0.00 | 0.00 | 0.00 | 73 | 1021.7 |
| 20260508170353 | 56 | 251 | 0.0 | 1.7 | 0.00 | 0.00 | 0.00 | 73 | 1021.7 |
| 20260508165351 | 56 | 256 | 0.9 | 1.7 | 0.00 | 0.00 | 0.00 | 73 | 1021.7 |
| 20260508164349 | 56 | 274 | 0.0 | 2.6 | 0.00 | 0.00 | 0.00 | 73 | 1021.7 |
| 20260508163348 | 56 | 243 | 1.7 | 2.6 | 0.00 | 0.00 | 0.00 | 74 | 1021.7 |
| 20260508162347 | 56 | 258 | 0.0 | 1.7 | 0.00 | 0.00 | 0.00 | 73 | 1021.7 |
| 20260508161345 | 56 | 258 | 0.0 | 1.7 | 0.00 | 0.00 | 0.00 | 72 | 1021.4 |
| 20260508160344 | 56 | 258 | 0.9 | 1.7 | 0.00 | 0.00 | 0.00 | 72 | 1021.4 |
| 20260508155342 | 56 | 258 | 0.0 | 1.7 | 0.00 | 0.00 | 0.00 | 72 | 1021.4 |
| 20260508154341 | 57 | 258 | 0.0 | 1.7 | 0.00 | 0.00 | 0.00 | 71 | 1021.4 |
| 20260508153339 | 57 | 258 | 0.9 | 1.7 | 0.00 | 0.00 | 0.00 | 71 | 1021.4 |
| 20260508152338 | 57 | 258 | 0.9 | 1.7 | 0.00 | 0.00 | 0.00 | 71 | 1021.4 |
| 20260508151337 | 57 | 258 | 0.0 | 2.6 | 0.00 | 0.00 | 0.00 | 71 | 1021.4 |
| 20260508150335 | 57 | 258 | 0.9 | 2.6 | 0.00 | 0.00 | 0.00 | 71 | 1021.7 |
| 20260508145333 | 57 | 258 | 1.7 | 1.7 | 0.00 | 0.00 | 0.00 | 71 | 1021.4 |
| 20260508144332 | 57 | 258 | 0.0 | 1.7 | 0.00 | 0.00 | 0.00 | 71 | 1021.4 |
| 20260508143300 | 57 | 258 | 0.9 | 0.9 | 0.00 | 0.00 | 0.00 | 72 | 1021.4 |
| 20260508142258 | 57 | 258 | 0.0 | 0.0 | 0.00 | 0.00 | 0.00 | 72 | 1021.4 |
| 20260508141256 | 57 | 258 | 0.0 | 0.9 | 0.00 | 0.00 | 0.00 | 71 | 1021.4 |
| 20260508140254 | 57 | 258 | 0.0 | 0.9 | 0.00 | 0.00 | 0.00 | 71 | 1021.4 |
| 20260508135253 | 57 | 258 | 0.0 | 0.9 | 0.00 | 0.00 | 0.00 | 71 | 1021.4 |
| 20260508134252 | 57 | 258 | 0.0 | 0.9 | 0.00 | 0.00 | 0.00 | 72 | 1021.4 |
| 20260508133219 | 57 | 258 | 0.0 | 0.0 | 0.00 | 0.00 | 0.00 | 72 | 1021.0 |
| 20260508132217 | 57 | 258 | 0.0 | 0.0 | 0.00 | 0.00 | 0.00 | 72 | 1021.0 |
| 20260508131215 | 57 | 258 | 0.0 | 0.0 | 0.00 | 0.00 | 0.00 | 71 | 1021.0 |
| 20260508130214 | 57 | 258 | 0.0 | 0.0 | 0.00 | 0.00 | 0.00 | 71 | 1021.0 |
| 20260508125212 | 57 | 258 | 0.0 | 0.0 | 0.00 | 0.00 | 0.00 | 71 | 1021.0 |
| 20260508124140 | 57 | 258 | 0.0 | 0.0 | 0.00 | 0.00 | 0.00 | 71 | 1021.0 |
| 20260508123138 | 58 | 258 | 0.0 | 0.9 | 0.00 | 0.00 | 0.00 | 71 | 1021.0 |
| 20260508122136 | 58 | 258 | 0.0 | 0.9 | 0.00 | 0.00 | 0.00 | 70 | 1021.0 |
| 20260508121032 | 58 | 258 | 0.0 | 0.9 | 0.00 | 0.00 | 0.00 | 70 | 1021.0 |
| 20260508120031 | 58 | 258 | 0.0 | 0.9 | 0.00 | 0.00 | 0.00 | 69 | 1021.0 |
| 20260508115029 | 58 | 258 | 0.0 | 0.9 | 0.00 | 0.00 | 0.00 | 68 | 1021.0 |
| 20260508114028 | 58 | 258 | 0.0 | 0.9 | 0.00 | 0.00 | 0.00 | 68 | 1021.0 |
| 20260508113026 | 58 | 258 | 0.9 | 0.9 | 0.00 | 0.00 | 0.00 | 68 | 1021.0 |
| 20260508112025 | 58 | 258 | 0.9 | 0.9 | 0.00 | 0.00 | 0.00 | 68 | 1021.0 |
| 20260508111024 | 59 | 258 | 0.0 | 0.9 | 0.00 | 0.00 | 0.00 | 67 | 1020.7 |
| 20260508110022 | 59 | 258 | 0.0 | 1.7 | 0.00 | 0.00 | 0.00 | 66 | 1020.7 |
| 20260508105020 | 59 | 258 | 0.9 | 1.7 | 0.00 | 0.00 | 0.00 | 66 | 1020.7 |
| 20260508104019 | 59 | 258 | 0.0 | 2.6 | 0.00 | 0.00 | 0.00 | 65 | 1020.3 |
| 20260508103017 | 59 | 252 | 1.7 | 2.6 | 0.00 | 0.00 | 0.00 | 65 | 1020.3 |
| 20260508101913 | 60 | 291 | 1.7 | 3.5 | 0.00 | 0.00 | 0.00 | 64 | 1020.3 |
| 20260508100840 | 60 | 249 | 0.9 | 3.5 | 0.00 | 0.00 | 0.00 | 63 | 1020.0 |
| 20260508095838 | 60 | 265 | 0.9 | 6.1 | 0.00 | 0.00 | 0.00 | 63 | 1020.0 |
| 20260508094836 | 60 | 254 | 0.9 | 6.1 | 0.00 | 0.00 | 0.00 | 62 | 1020.0 |
| 20260508093835 | 61 | 259 | 0.9 | 5.2 | 0.00 | 0.00 | 0.00 | 61 | 1019.6 |
| 20260508092834 | 61 | 278 | 0.9 | 6.1 | 0.00 | 0.00 | 0.00 | 60 | 1019.6 |
| 20260508091832 | 61 | 253 | 1.7 | 7.8 | 0.00 | 0.00 | 0.00 | 58 | 1019.3 |
| 20260508090830 | 61 | 268 | 0.9 | 7.8 | 0.00 | 0.00 | 0.00 | 57 | 1019.3 |